Regional Weather Roundup
Issued by NWS

Home | Current Version | Previous Version | Text Only | Print | Product List | Glossary Off
Versions: 1 2 3 4 5 6 7 8 9 10 11 12 13 14 15 16 17 18 19 20 21 22 23 24 25 26 27 28 29 30 31 32 33 34 35 36 37 38 39 40 41 42 43 44 45 46 47 48 49 50

000
ASUS43 KLOT 272110
RWRIL

ILLINOIS REGIONAL WEATHER ROUNDUP
NATIONAL WEATHER SERVICE CHICAGO/ROMEOVILLE IL
300 PM CST TUE JAN 27 2015

NOTE: "FAIR" INDICATES FEW OR NO CLOUDS BELOW 12,000 FEET WITH NO
SIGNIFICANT WEATHER AND/OR OBSTRUCTIONS TO VISIBILITY.

* THESE STATIONS ARE NOT UNDER NWS QUALITY CONTROL. THEY ALSO MAY NOT
  REPORT WEATHER SUCH AS PRECIPITATION OR FOG.

ILZ001-002-007-009-015-016-024-272200-
NORTHWEST ILLINOIS

CITY           SKY/WX    TMP DP  RH WIND       PRES   REMARKS
MOLINE         CLOUDY    30  22  72 E5        30.20S WCI  25
STERLING*      CLOUDY    30  23  74 CALM      30.21R
SAVANNA*       CLOUDY    29  23  77 NW3       30.22R
$$

ILZ003-004-008-010-011-017-018-272200-
NORTH CENTRAL ILLINOIS

CITY           SKY/WX    TMP DP  RH WIND       PRES   REMARKS
ROCKFORD       CLOUDY    31  22  69 CALM      30.21R
FREEPORT*      CLOUDY    29  24  81 E3        30.22R
ROCHELLE*      CLOUDY    29  22  76 NE3       30.20S
DE KALB*       CLOUDY    28  22  75 CALM      30.19S
PERU*          CLOUDY    31  26  83 CALM      30.21R
$$

ILZ005-006-012>014-019>023-272200-
NORTHEAST ILLINOIS

CITY           SKY/WX    TMP DP  RH WIND       PRES   REMARKS
CHICAGO-OHARE  MOSUNNY   30  17  58 NE10      30.19R WCI  21
CHICAGO-MIDWAY MOSUNNY   32  19  58 N10       30.20R WCI  24
AURORA         MOSUNNY   31  21  66 N6        30.19R WCI  25
LANSING*       SUNNY     30  19  63 N7        30.20R WCI  23
JOLIET*        PTSUNNY   31  20  63 NE5       30.19R WCI  27
WAUKEGAN       SUNNY     28  15  58 N9        30.20R WCI  19
DUPAGE AIRPORT MOSUNNY   33  21  61 N8        30.18R WCI  26
KANKAKEE*      SUNNY     31  21  65 N6        30.19S WCI  25
WHEELING       SUNNY     29  16  58 NE7       30.21R WCI  22
MORRIS*        CLOUDY    31  25  76 CALM      30.19R
ROMEOVILLE*    SUNNY     32  20  60 N8        30.19R WCI  25
NORTHERLY ISL    N/A     28  17  63 N8          N/A  WCI  20
$$

LMZ740>746-272200-
SOUTHERN LAKE MICHIGAN

STATION/POSITION SKY/WX   TEMP    WIND        PRES    VSBY  WAVE
                          AIR SEA DIR/SP/G                  HT/PER
                          (F)     (DEG/KT/KT) (MB)    (MI)  (FT/S)
WAUKEGAN HARBOR            28      30/ 10/ 14   N/A
HARRISON CRIB              27     360/ 10/ 13   N/A
BURNHAM HARBOR             29      10/  8/ 11   N/A
CALUMET HARBOR             28     350/  8/ 12   N/A
MICHIGAN CITY              28     350/ 11/ 13   N/A
$$

ILZ025>027-034>036-040-047-049-050-058-095>099-272200-
WEST-CENTRAL ILLINOIS

CITY           SKY/WX    TMP DP  RH WIND       PRES   REMARKS
QUINCY         CLOUDY    38  31  76 NE9       30.18R WCI  31
GALESBURG*     CLOUDY    28  25  86 NE7       30.21R WCI  21
MACOMB*        CLOUDY    30  27  87 NE7       30.23R WCI  23
JACKSONVILLE*  CLOUDY    35  29  78 NE5       30.20R WCI  31
PITTSFIELD*    CLOUDY    40  32  71 N8        30.18R
$$

ILZ028>032-037-038-041>044-048-051>054-059>061-272200-
CENTRAL ILLINOIS

CITY           SKY/WX    TMP DP  RH WIND       PRES   REMARKS
PONTIAC        CLOUDY    31  28  90 E3        30.20R FOG
BLOOMINGTON    CLOUDY    32  27  82 NE8       30.19R WCI  25
DECATUR        CLOUDY    33  27  78 NE8       30.18R WCI  26
PEORIA         CLOUDY    32  24  72 N5        30.21R WCI  27
LACON*         CLOUDY    30  24  78 CALM      30.21R
LINCOLN*       CLOUDY    33  28  82 N5        30.21R WCI  29
SPRINGFIELD    CLOUDY    32  26  78 N8        30.20R WCI  25
TAYLORVILLE    CLOUDY    32  28  86 N8        30.20R WCI  25
$$

ILZ033-039-045-046-055>057-062-063-272200-
EAST-CENTRAL ILLINOIS

CITY           SKY/WX    TMP DP  RH WIND       PRES   REMARKS
CHAMPAIGN      CLOUDY    31  26  82 N8        30.17R WCI  23
DANVILLE*      CLOUDY    29  21  72 N5        30.15R WCI  24
RANTOUL*       CLOUDY    32  26  79 NE8       30.17S WCI  25
MATTOON        CLOUDY    32  26  78 N12       30.16R WCI  23
PARIS*         CLOUDY    31  28  90 N3        30.18R
$$

ILZ079-100>102-272200-
SOUTHWEST ILLINOIS

CITY           SKY/WX    TMP DP  RH WIND       PRES   REMARKS
ALTON          MOSUNNY   41  28  60 N7        30.18R
BELLEVILLE     PTSUNNY   43  31  60 N8        30.16R
CAHOKIA*       CLOUDY    44  32  62 N13       30.17R
SPARTA*        CLOUDY    40  32  71 N6        30.17R
$$

ILZ064>066-069>071-074>076-080>082-084>086-088>090-092>094-272200-
SOUTH-CENTRAL ILLINOIS

CITY           SKY/WX    TMP DP  RH WIND       PRES   REMARKS
CARBONDALE     CLOUDY    42  29  59 N10       30.16R
CAIRO*         PTSUNNY   49  34  55 NW12      30.15R
EFFINGHAM*     CLOUDY    33  27  77 N6        30.19R WCI  28
MARION         CLOUDY    43  28  56 N9G17     30.16R
MT. VERNON     CLOUDY    39  28  65 N7        30.17R WCI  34
CENTRALIA*     CLOUDY    37  29  72 N10       30.17R WCI  30
SALEM*         CLOUDY    38  31  75 N10       30.18R WCI  31
METROPOLIS*    CLOUDY    45  32  60 NW9G16    30.14R
$$

ILZ067-068-072-073-078-083-087-091-272200-
SOUTHEAST ILLINOIS

CITY           SKY/WX    TMP DP  RH WIND       PRES   REMARKS
LAWRENCEVILLE  CLOUDY    33  30  88 N7        30.18R WCI  27
FLORA*         CLOUDY    35  30  80 N9        30.18R WCI  28
FAIRFIELD*     CLOUDY    37  30  75 N9        30.16R WCI  30
HARRISBURG*    CLOUDY    39  31  72 N8        30.17R WCI  34
ROBINSON*      CLOUDY    32  30  92 N6        30.18R WCI  26
$$

ABBREVIATIONS USED IN REMARKS
   TC - TEMPERATURE IN CELSIUS
  WCI - WIND CHILL INDEX
   HX - HEAT INDEX
  VSB - VISIBILITY
$$




USA.gov is the U.S. government's official web portal to all federal, state and local government web resources and services.